GFSNE_con_3kmhel_051.txt.gz
Helicity
203 185 187 174 165 157 146 129 132 137 107 123 114 105 53 57 82 90 64 43 63 74 61 90 215 257 318 302 295 223 191 122 115 70 73 96 93 105
191 198 183 171 158 153 132 131 135 136 137 148 108 69 68 77 78 71 82 93 101 99 254 282 253 217 226 221 212 139 109 78 53 29 65 58 58 65
198 189 191 174 160 139 140 148 160 143 122 117 98 81 80 65 60 53 67 87 98 236 242 219 176 157 142 106 128 105 71 61 59 70 78 67 77 84
166 168 162 143 140 131 131 134 126 109 97 65 81 83 84 80 50 49 61 68 55 68 67 91 74 101 77 59 58 66 60 59 38 49 91 84 74 51
149 140 134 130 136 121 120 112 104 94 92 69 82 65 72 71 56 55 61 66 61 36 30 50 48 62 87 73 62 59 48 87 99 69 58 56 63 70
137 135 128 124 115 106 103 99 89 87 83 91 85 81 73 64 60 58 61 66 63 71 72 64 53 65 81 99 103 127 136 108 85 70 61 64 74 71
107 94 109 74 76 76 68 78 82 83 88 87 88 83 82 82 80 67 58 68 81 92 88 90 92 90 92 85 86 83 83 78 74 64 53 41 35 30
70 78 87 90 103 106 113 113 102 93 86 91 95 93 92 90 88 87 85 83 81 101 89 68 77 83 87 90 80 75 65 43 32 29 26 22 19 22
68 72 83 87 96 93 95 106 110 110 106 86 94 96 100 99 101 100 97 86 83 80 53 68 82 76 86 73 53 37 33 28 20 19 23 28 33 40
67 67 78 68 73 84 88 95 97 107 100 96 101 98 90 88 80 85 84 77 68 76 70 84 96 99 76 51 47 49 41 27 19 31 42 48 52 48
58 57 63 65 73 78 82 87 82 80 87 99 93 84 83 78 70 83 77 80 89 94 91 95 112 118 100 83 65 60 75 83 111 87 69 82 86 81
46 53 65 63 69 73 78 72 74 75 77 76 75 79 80 84 93 75 87 88 91 92 102 92 110 108 126 98 82 79 76 82 87 80 82 102 118 121
46 50 53 58 66 63 70 52 52 66 74 75 76 81 86 95 98 95 88 88 92 85 96 92 112 122 112 116 89 99 90 75 78 73 68 63 65 97
50 48 43 40 44 51 62 45 86 83 77 78 80 84 89 91 88 86 89 85 79 81 71 103 118 120 115 112 111 89 90 101 92 91 90 93 96 89
41 33 37 44 56 64 54 70 80 77 78 77 82 87 87 82 81 87 89 82 74 79 81 97 98 95 109 118 118 99 74 85 90 71 112 111 100 101
36 37 42 53 61 70 72 74 72 73 72 76 86 88 84 90 95 102 104 100 87 110 107 91 87 111 111 102 107 108 90 85 82 89 88 87 84 87
48 53 55 64 65 67 71 73 77 77 79 87 89 91 93 93 100 108 112 111 110 108 106 119 123 108 109 116 127 138 111 82 77 79 65 70 69 70
83 69 58 59 59 60 65 72 78 77 87 94 96 98 95 96 96 105 119 124 111 105 97 102 104 111 117 94 133 114 81 74 68 61 59 67 85 69
89 84 73 63 57 63 67 76 86 89 99 94 102 103 99 102 98 114 126 127 116 110 99 103 110 127 127 121 107 93 86 66 71 69 70 91 106 87
120 111 97 80 64 67 81 89 89 95 99 100 105 108 114 118 117 121 127 129 124 108 97 104 124 141 153 155 136 93 113 118 109 108 100 84 105 39
126 120 109 86 69 86 89 89 95 96 102 109 117 122 126 140 124 132 131 110 104 117 114 104 113 85 126 137 173 151 115 83 111 128 103 81 80 72
128 128 107 85 80 95 95 96 96 100 108 117 117 122 132 151 147 142 140 129 124 131 139 127 110 120 136 167 168 127 99 75 74 66 61 72 119 139
141 134 110 86 91 94 96 97 105 107 113 117 121 129 144 150 151 147 137 131 126 122 117 117 110 120 150 151 101 85 77 90 93 64 102 92 70 57

GFSNE_con_3kmhel_054.txt.gz
Helicity
233 213 196 163 148 150 156 147 149 142 99 161 104 85 24 36 58 78 89 95 122 64 92 209 218 159 331 432 376 307 258 273 189 171 123 104 73 97
174 164 165 163 171 174 168 150 139 126 144 153 101 58 50 60 66 63 81 95 175 244 250 203 194 120 187 214 226 219 218 199 155 89 51 70 87 73
168 154 161 159 155 156 141 134 129 130 121 115 93 82 66 66 58 65 70 80 109 159 159 165 164 146 125 143 193 221 209 164 100 76 72 117 105 111
140 136 128 121 129 126 119 119 120 109 96 92 102 73 66 52 56 62 62 74 77 71 75 85 77 72 76 68 92 105 101 86 78 75 113 107 95 75
127 129 123 121 131 128 122 110 99 91 96 88 73 75 73 73 73 63 60 73 80 79 73 66 57 49 54 75 81 89 84 63 86 81 83 80 70 76
132 123 108 86 80 68 63 62 66 68 71 74 77 75 74 79 74 73 71 76 93 94 96 100 89 79 84 85 90 106 104 107 99 86 71 71 67 62
107 91 77 79 76 74 62 69 70 70 78 77 80 78 78 79 85 76 68 77 86 101 103 101 103 98 91 76 73 68 70 68 72 69 57 59 58 57
48 51 59 79 99 93 107 117 103 81 79 82 79 87 97 88 81 84 84 86 85 89 104 94 91 91 96 97 105 84 73 73 68 50 36 18 17 25
49 51 59 65 68 70 87 87 92 101 110 86 93 106 99 96 94 83 92 80 78 79 69 75 91 82 83 76 73 71 57 46 37 30 25 25 27 25
68 67 61 59 73 82 83 75 79 85 94 95 103 93 88 82 81 81 78 69 62 75 71 78 89 86 76 66 80 66 71 74 55 40 41 40 41 39
56 63 58 58 75 66 71 71 66 70 79 87 77 71 72 71 64 65 65 75 82 91 91 94 108 109 86 78 80 81 93 91 89 93 71 55 57 59
52 50 57 55 60 62 56 67 76 79 71 62 62 65 66 77 71 61 73 72 81 85 115 99 115 120 116 105 90 85 84 73 77 76 73 80 97 119
50 48 51 56 52 49 52 61 70 70 74 66 69 69 72 75 76 79 78 78 78 81 121 105 107 105 103 109 97 97 95 97 96 93 81 65 69 76
49 50 51 42 34 40 56 55 77 71 69 72 71 70 72 74 76 76 72 75 80 69 71 108 107 101 102 107 107 97 99 114 114 111 112 100 82 71
52 55 44 44 42 55 61 67 69 63 68 70 73 77 81 85 83 78 75 73 67 73 84 88 93 86 104 117 112 95 86 93 97 95 103 109 98 97
58 55 53 51 53 57 66 66 63 68 72 77 82 85 85 89 88 95 95 91 83 90 132 115 100 100 102 100 101 95 89 103 87 78 91 99 90 82
68 65 62 65 66 67 65 68 71 72 75 81 84 86 87 89 90 98 96 94 94 103 117 130 126 111 107 111 115 107 89 79 88 85 82 82 83 84
64 70 72 77 76 74 71 74 84 83 87 91 92 94 91 96 97 101 104 109 110 115 122 132 136 129 117 107 121 107 81 81 83 84 81 80 81 75
66 72 81 91 95 90 82 83 88 99 108 99 94 94 95 97 99 105 117 123 120 116 119 131 141 150 144 132 111 111 114 77 88 92 90 87 83 78
78 82 90 102 107 97 93 92 104 105 97 94 94 95 97 104 110 115 121 127 129 119 117 128 136 146 163 143 141 132 122 134 113 99 85 82 80 33
100 99 103 116 118 108 92 94 98 94 95 95 97 103 106 115 117 118 122 112 112 130 125 122 121 94 139 130 162 130 111 79 101 109 86 44 52 53
120 126 126 132 130 113 96 93 94 92 93 100 104 111 120 129 125 123 128 130 128 131 133 118 109 122 132 150 146 111 106 96 76 46 54 62 77 96
154 142 145 141 143 116 105 97 93 93 98 108 114 118 131 136 129 126 127 128 131 132 129 126 115 116 130 138 121 130 105 100 98 72 92 69 52 54

GFSNE_con_3kmhel_057.txt.gz
Helicity
219 230 234 218 192 179 161 137 149 181 137 162 130 118 58 21 55 61 67 79 171 159 173 160 178 183 231 288 226 198 283 293 360 397 296 225 114 87
169 181 193 187 196 181 150 151 151 162 157 137 126 94 44 43 57 72 75 83 104 149 167 181 202 209 204 190 217 227 215 245 312 271 225 205 75 61
160 161 168 161 153 150 154 155 144 147 133 134 106 75 61 67 62 65 69 70 72 98 110 124 134 136 137 140 131 165 135 135 161 167 123 137 118 103
157 153 147 140 149 140 138 143 143 128 129 115 95 71 63 65 59 62 62 63 76 84 80 89 91 86 86 84 87 90 99 111 126 160 141 121 114 121
162 141 128 132 134 129 141 124 104 88 92 91 76 53 62 72 66 63 62 69 66 81 95 90 94 88 73 84 87 96 91 68 75 73 71 73 75 74
163 148 137 119 90 73 70 57 50 44 52 67 62 68 69 82 74 77 93 83 88 96 96 95 98 101 103 101 101 115 118 108 103 95 95 94 93 89
139 146 132 93 102 90 63 69 62 74 81 76 71 79 76 80 102 92 91 95 95 105 97 106 94 103 102 96 90 90 102 101 95 86 83 82 87 83
106 89 69 85 87 87 96 119 107 105 97 87 85 87 107 99 91 111 97 99 106 75 85 91 95 97 96 105 122 105 90 86 78 82 81 76 66 57
47 46 54 57 66 67 78 94 107 115 120 105 110 123 120 128 101 93 98 80 75 72 72 78 94 94 91 88 93 83 72 72 73 68 61 53 51 50
52 44 40 63 87 81 94 85 93 97 118 123 137 141 121 110 88 80 74 65 65 78 86 70 82 82 80 75 110 94 94 94 95 89 64 61 63 63
41 57 71 66 81 81 82 76 70 80 94 96 95 90 80 73 65 67 68 74 76 81 89 79 78 82 75 77 91 90 84 88 87 88 86 86 64 63
47 61 62 82 74 60 59 78 72 84 96 79 83 76 67 76 65 56 72 73 70 74 101 88 96 96 93 94 95 87 81 80 81 82 92 83 86 112
59 52 61 54 48 50 64 77 77 87 85 79 81 80 75 74 72 80 83 86 80 82 110 109 94 92 94 97 99 100 95 89 91 90 89 92 79 79
58 58 65 57 45 41 52 53 67 80 72 80 86 79 85 91 85 82 85 78 78 78 70 126 112 111 114 111 109 112 102 110 116 109 111 101 87 74
63 69 68 56 49 45 44 51 64 70 75 88 84 93 98 99 95 80 72 71 74 77 87 124 119 106 111 139 122 110 93 118 95 87 113 120 119 121
61 56 54 60 55 53 73 66 71 69 86 93 99 103 110 108 94 87 97 94 101 101 111 147 145 125 124 131 129 111 129 132 121 112 100 99 96 113
72 79 78 72 72 79 84 82 85 94 108 110 116 114 106 104 104 102 105 106 110 116 117 148 145 148 150 145 134 136 133 119 111 102 115 97 93 99
88 84 79 79 88 89 96 102 104 93 118 127 131 118 111 111 106 108 114 114 111 116 126 142 164 179 143 129 138 130 123 119 107 103 101 98 86 97
83 81 91 99 109 113 115 121 118 117 140 151 134 119 116 114 101 116 117 120 121 124 128 145 169 167 170 159 149 103 160 140 118 112 127 136 123 97
108 91 97 115 125 133 138 143 136 128 138 130 121 123 122 124 125 129 134 138 139 136 133 141 152 167 187 172 174 150 89 124 149 131 114 103 106 48
138 115 121 130 144 153 155 159 157 139 132 138 130 122 127 137 131 133 135 97 99 134 138 137 137 79 150 150 181 178 143 73 97 162 170 130 79 49
156 146 153 151 165 171 174 176 170 142 138 138 131 126 135 145 141 144 138 132 134 142 137 134 131 136 142 159 142 117 102 104 91 62 60 85 149 155
182 179 187 178 184 179 192 187 174 156 147 139 137 139 150 155 152 136 132 139 135 132 133 133 133 138 139 136 106 111 92 99 124 126 126 89 67 74

GFSNE_con_3kmhel_063.txt.gz
Helicity
164 164 176 180 181 174 150 173 218 206 199 240 220 213 153 114 80 51 59 62 73 79 82 91 91 121 182 272 283 173 169 180 113 45 42 134 227 387
169 170 180 187 195 190 177 176 183 166 191 199 203 181 151 96 67 61 54 68 61 65 66 82 102 131 164 193 201 177 184 224 209 204 210 204 299 284
178 174 185 171 171 174 164 167 193 178 177 211 179 161 124 90 55 64 66 66 56 56 63 70 88 110 126 135 142 139 129 136 153 186 175 170 138 135
182 206 186 186 192 182 165 175 166 151 154 177 165 130 96 47 60 75 67 64 49 64 82 82 87 100 98 94 97 111 108 108 101 104 163 88 116 110
220 201 201 181 188 164 154 134 117 117 124 120 97 91 64 61 63 71 77 86 65 75 88 92 95 102 108 106 100 111 118 110 92 88 103 116 129 128
250 232 203 190 174 145 116 93 77 69 71 78 76 71 62 66 91 97 89 93 86 90 88 88 97 105 93 93 94 107 114 120 123 121 114 110 110 110
218 204 190 171 137 110 95 75 56 64 69 74 87 76 70 79 87 83 78 75 82 102 85 57 67 77 77 87 81 83 85 85 90 95 97 99 97 91
186 183 164 148 120 108 111 103 84 73 72 83 82 82 77 89 87 74 76 86 75 80 78 66 72 73 68 54 50 62 65 70 73 74 72 72 73 73
119 119 122 113 97 72 61 78 88 98 89 81 78 76 82 74 76 75 79 81 76 65 75 71 71 67 60 56 45 54 58 57 62 66 62 59 58 57
92 79 60 43 38 52 63 70 83 87 84 90 86 81 78 81 72 65 67 66 69 72 77 90 76 70 62 60 53 64 71 78 78 72 72 74 74 57
50 43 41 34 37 48 62 65 69 59 69 72 65 65 73 71 68 89 98 100 93 96 82 98 87 87 75 79 67 66 60 61 72 72 78 85 91 86
52 42 45 40 34 44 65 59 67 60 64 63 74 77 81 73 81 87 90 100 89 97 77 105 91 103 95 71 68 62 71 83 89 101 103 100 94 101
45 43 49 35 41 40 53 60 57 62 47 62 68 69 68 70 78 84 83 95 100 81 78 88 93 92 92 78 68 68 97 97 88 90 93 106 108 99
48 48 42 35 39 40 47 41 47 58 62 62 63 67 68 70 76 78 82 87 85 83 82 94 96 98 96 87 75 83 78 82 93 101 115 115 110 107
57 46 39 38 33 39 37 32 40 65 65 70 65 62 66 81 110 102 91 88 81 85 83 91 108 100 104 96 91 100 95 116 128 146 124 88 107 118
48 53 55 51 44 45 52 53 72 71 83 82 75 72 89 114 105 111 123 112 121 105 85 78 91 115 108 114 116 102 120 114 118 133 133 119 128 124
86 89 83 78 69 62 58 53 57 77 84 94 97 85 81 95 106 120 118 115 113 116 110 93 89 102 119 150 126 135 127 137 156 154 154 112 101 119
109 105 84 75 68 66 68 72 69 53 92 106 102 94 95 99 109 125 133 127 115 110 99 102 110 119 118 94 108 124 118 127 151 165 161 131 84 98
125 152 168 166 136 108 108 110 110 81 107 125 128 123 119 108 97 121 125 118 104 94 95 104 127 150 144 125 104 89 146 149 170 142 141 154 129 98
184 170 131 129 116 122 120 136 124 119 122 139 151 148 143 135 126 129 130 122 103 96 101 123 142 148 141 129 130 110 75 131 166 137 133 127 121 45
153 136 134 137 137 142 153 144 136 135 152 173 180 183 169 159 128 131 124 81 79 111 107 127 128 86 135 141 141 128 125 81 92 133 134 121 93 80
167 164 162 145 158 160 170 178 178 176 185 198 201 214 191 181 153 143 136 121 105 110 108 113 125 126 140 144 131 120 117 121 113 85 65 74 142 140
196 191 176 170 164 175 187 201 188 180 183 214 231 233 199 200 163 148 134 113 113 114 119 121 128 136 138 142 107 113 104 109 121 122 137 100 66 52

GFSNE_con_3kmhel_066.txt.gz
Helicity
138 143 148 150 153 165 187 183 172 168 203 234 231 237 199 165 129 86 65 78 82 72 72 76 94 107 154 191 177 163 214 206 190 95 23 113 31 7
145 141 151 163 172 185 205 193 177 188 218 190 187 196 174 134 102 72 60 72 60 61 45 39 62 99 133 149 150 150 180 242 293 292 241 204 177 240
138 144 158 163 179 183 192 188 182 181 192 207 195 169 152 102 71 52 53 62 57 47 39 58 73 92 109 132 129 141 152 175 197 203 208 196 159 174
147 154 162 173 174 175 158 154 158 169 192 199 183 162 119 83 43 60 70 72 60 61 56 72 74 92 107 100 113 140 143 146 142 148 152 144 136 137
162 168 164 159 174 176 180 160 160 158 149 159 174 139 95 56 57 75 87 89 74 94 85 75 81 94 114 110 94 105 119 113 106 107 103 107 129 104
214 215 206 176 153 155 156 146 129 113 111 127 111 91 74 74 78 86 83 87 72 79 79 85 80 94 112 103 99 105 111 113 119 115 108 109 105 98
207 203 208 196 162 132 131 114 95 94 84 88 90 90 89 98 84 91 86 79 69 86 73 67 73 73 91 99 85 83 87 88 90 93 98 106 114 113
192 191 165 161 152 131 108 100 84 64 70 79 86 97 100 90 95 93 82 96 81 84 80 73 90 82 78 72 61 75 78 75 79 86 89 85 81 81
161 162 156 134 119 119 88 97 81 75 74 65 77 77 89 74 96 91 83 94 91 85 77 87 86 78 71 63 52 70 84 85 85 87 90 85 79 76
116 111 112 94 80 72 77 69 67 71 77 79 77 71 79 78 77 81 86 102 96 89 86 102 84 76 75 75 79 80 78 85 83 85 79 83 83 79
83 68 66 62 27 32 45 57 62 68 66 70 66 58 63 64 71 96 104 114 108 97 95 101 90 85 80 83 90 106 89 79 80 80 78 86 92 93
53 45 31 35 26 36 41 54 57 49 64 72 65 68 77 61 70 69 90 104 101 110 85 113 103 105 97 88 92 88 88 119 114 108 97 85 80 84
48 37 42 25 27 34 39 47 47 60 46 58 58 61 60 63 70 81 84 95 109 102 90 106 105 104 108 104 94 89 101 101 87 81 98 99 89 98
62 49 40 28 34 33 50 40 39 56 67 66 65 58 60 63 62 73 84 90 89 95 92 105 109 105 108 105 97 104 89 66 82 85 85 123 106 77
52 45 35 35 41 42 37 33 33 77 69 68 66 69 60 69 95 102 104 101 100 100 96 106 114 112 112 99 87 99 86 98 94 124 127 62 87 108
39 46 49 49 58 61 52 47 69 75 76 77 77 73 95 105 94 96 103 117 135 129 106 89 87 113 105 101 112 119 125 104 108 111 112 98 114 129
77 78 79 76 73 74 65 60 68 82 102 109 90 97 96 101 89 99 104 127 147 160 142 118 88 86 89 100 92 122 123 136 140 143 140 108 97 138
111 102 74 83 86 91 96 115 144 153 121 124 87 85 100 108 105 117 126 139 143 153 156 141 123 114 96 75 85 115 125 135 141 153 158 126 77 114
128 130 122 137 151 182 185 173 122 125 140 128 101 105 105 119 113 132 139 147 144 144 137 133 137 141 124 109 98 65 130 150 149 150 165 174 125 103
114 165 186 173 153 142 128 119 122 138 134 124 118 129 147 156 165 179 182 166 150 142 135 138 126 116 134 122 102 119 117 134 145 131 131 139 128 55
156 157 158 141 137 134 131 139 146 156 169 147 144 167 175 200 192 223 194 131 131 153 134 132 109 65 113 136 129 114 121 80 84 150 149 140 106 98
155 155 152 152 147 155 153 163 167 158 169 175 161 177 194 219 211 229 194 179 161 149 143 122 100 102 142 145 116 113 107 102 113 87 54 63 130 128
175 168 170 163 156 142 162 167 163 168 191 195 190 190 217 224 229 222 199 171 162 155 130 101 116 145 138 147 106 111 102 109 126 129 124 92 67 55

GFSNE_con_3kmhel_069.txt.gz
Helicity
103 110 134 132 149 144 156 158 177 192 202 226 240 243 231 177 131 140 100 75 72 84 80 90 90 119 137 142 135 114 150 175 139 133 21 89 72 66
77 95 146 151 158 178 171 178 187 166 189 239 252 210 207 173 142 133 89 85 88 72 68 69 68 94 107 112 128 125 121 182 220 265 277 302 262 307
136 94 140 150 157 176 183 176 190 186 175 180 207 168 194 152 125 108 83 71 68 68 64 56 59 79 97 102 120 123 124 145 157 189 217 206 163 187
123 114 131 164 177 182 171 176 161 152 138 154 182 202 179 152 115 90 78 77 82 75 61 72 80 83 85 98 118 121 120 134 157 168 168 168 181 192
139 142 155 184 185 180 168 159 162 162 166 177 169 172 150 134 111 74 81 74 79 94 78 89 100 98 95 86 102 115 124 132 148 150 133 129 134 141
162 178 175 171 178 173 182 165 154 154 143 148 157 140 126 104 73 62 79 89 81 81 77 89 91 103 112 105 117 124 125 121 117 108 98 117 126 121
148 190 199 198 194 182 169 153 140 146 139 118 116 107 91 84 75 67 86 87 86 92 83 81 80 96 107 111 103 108 110 99 108 101 94 98 105 107
133 165 187 187 168 158 160 153 128 109 91 89 82 78 77 75 80 79 82 90 73 75 88 80 88 103 105 107 88 92 98 89 96 97 94 90 89 90
127 150 175 177 168 164 148 147 131 120 96 76 68 65 71 69 91 93 77 74 75 73 85 83 92 94 88 87 76 87 96 94 101 101 100 100 96 92
122 122 123 119 107 104 100 103 118 107 76 79 67 73 81 82 85 72 65 81 86 86 91 97 95 95 92 97 114 94 102 108 102 105 103 101 99 93
107 99 89 77 56 65 74 71 66 67 54 78 75 83 82 74 70 89 90 98 86 90 93 104 104 100 100 102 116 128 114 106 103 101 99 99 95 95
83 70 41 44 27 31 36 34 43 44 61 72 85 95 98 71 53 62 66 78 93 99 83 109 113 122 124 103 103 110 103 112 113 101 91 89 87 74
69 63 43 27 28 35 34 36 40 56 53 64 62 67 70 69 67 61 65 79 83 84 89 116 119 131 134 118 112 106 100 101 98 85 96 86 80 84
71 41 29 17 28 39 46 36 48 73 74 70 72 72 66 51 40 56 81 75 73 84 93 111 115 126 133 136 122 121 103 89 80 84 72 91 99 84
63 40 33 25 46 52 52 46 54 90 83 85 78 77 67 50 68 97 102 89 78 81 93 112 122 132 136 128 120 116 115 105 77 91 123 78 57 67
54 50 47 44 54 74 74 60 79 85 90 90 87 93 108 123 101 108 104 98 96 94 101 111 120 138 127 114 119 118 138 118 109 107 76 51 68 86
85 79 86 98 95 90 84 74 75 91 123 140 119 157 160 130 95 110 113 113 107 113 128 129 107 103 109 126 112 123 128 130 122 130 132 86 78 109
104 95 94 98 97 96 94 97 101 98 111 131 159 153 156 154 126 108 122 118 117 126 132 136 136 130 121 86 77 123 129 122 119 129 129 105 73 99
97 110 112 114 110 141 145 152 164 185 175 123 119 123 112 101 93 136 143 147 137 147 137 152 165 164 144 119 96 40 101 99 131 135 130 132 106 94
114 125 114 115 115 138 180 185 153 155 157 144 140 142 140 143 150 147 165 172 166 189 165 169 174 179 170 128 96 98 57 124 144 137 118 121 118 53
143 138 145 141 130 137 138 137 135 141 152 159 146 170 163 174 163 164 170 149 161 207 177 169 165 112 158 139 123 131 102 52 85 127 119 110 109 111
132 135 148 161 165 168 150 144 144 144 158 165 168 185 179 192 171 174 192 194 192 208 188 199 186 173 144 141 118 99 109 99 80 65 46 62 132 133
132 150 161 165 169 167 162 163 170 169 179 187 195 193 215 212 181 186 202 207 213 192 180 170 157 148 136 138 91 104 93 92 105 118 122 103 65 40